Weather History for Bradford, PA

Change the Weather History Date:

Sunday, February 3, 2013

  Actual Average Record
Temperature  
Mean Temperature 16 °F 22 °F  
Max Temperature 21 °F 30 °F 51 °F (1991)
Min Temperature 12 °F 14 °F -13 °F (1971)
Degree Days  
Heating Degree Days 48 37  
Month to date heating degree days 113  
Since 1 July heating degree days 4524  
Cooling Degree Days 0 0  
Month to date cooling degree days 0  
Year to date cooling degree days 0  
Moisture  
Dew Point 11 °F    
Average Humidity 77    
Maximum Humidity 84    
Minimum Humidity 65    
Precipitation  
Precipitation 0.01 in 0.08 in 1.06 in (1961)
Month to date precipitation 0.25  
Year to date precipitation 3.54  
Sea Level Pressure  
Sea Level Pressure 29.77 in    
Wind  
Wind Speed 4 mph (WSW)    
Max Wind Speed 14 mph    
Max Gust Speed 21 mph    
Visibility 2 miles    
Events Snow    
T = Trace of Precipitation, MM = Missing Value Source: NWS Daily Summary

Daily Weather History Graph

Daily Weather History Graph

Search for Another Location

Airport:

Trip Planner

Search our weather history database for the weather conditions in past years. The results will help you decide how hot, cold, wet, or windy it might be!

Date:

Astronomy

Feb. 03, 2013 Rise Set
Actual Time 7:24 AM EST 5:32 PM EST
Civil Twilight 6:55 AM EST 6:02 PM EST
Nautical Twilight 6:22 AM EST 6:35 PM EST
Astronomical Twilight 5:49 AM EST 7:07 PM EST
Moon 12:50 AM EST (2/3) 11:08 AM EST (2/3)
Length of Visible Light 11h 06m
Length of Day
10h 08m
Waning Gibbous, 49% of the Moon is Illuminated
Feb 3
Waning Gibbous
Feb 10
New
Feb 17
First Quarter
Feb 25
Full
Mar 4
Last Quarter

Hourly Weather History & Observations

Time (EST) Temp. Windchill Dew Point Humidity Pressure Visibility Wind Dir Wind Speed Gust Speed Precip Events Conditions
12:53 AM 17.1 °F 10.0 °F 12.9 °F 84% 29.94 in 7.0 mi SW 4.6 mph - N/A   Overcast
1:17 AM 17.1 °F - 12.9 °F 84% 29.83 in 5.0 mi Calm Calm - 0.00 in Snow Light Snow
1:53 AM 18.0 °F 12.7 °F 12.9 °F 81% 29.93 in 4.0 mi WSW 3.5 mph - 0.00 in Snow Light Snow
2:53 AM 17.1 °F 11.7 °F 12.9 °F 84% 29.91 in 3.0 mi Variable 3.5 mph - 0.00 in Snow Light Snow
3:04 AM 17.1 °F - 12.9 °F 84% 29.81 in 4.0 mi Calm Calm - 0.00 in Snow Light Snow
3:44 AM 17.1 °F - 12.9 °F 84% 29.79 in 4.0 mi Calm Calm - 0.00 in Snow Light Snow
3:53 AM 17.1 °F - 12.9 °F 84% 29.89 in 4.0 mi Calm Calm - 0.00 in Snow Light Snow
4:15 AM 17.1 °F - 12.9 °F 84% 29.78 in 2.5 mi Calm Calm - 0.00 in Snow Light Snow
4:32 AM 17.1 °F - 12.0 °F 81% 29.78 in 4.0 mi Calm Calm - 0.00 in Snow Light Snow
4:53 AM 17.1 °F - 12.9 °F 84% 29.87 in 5.0 mi Calm Calm - 0.00 in   Overcast
5:05 AM 17.1 °F - 12.9 °F 84% 29.77 in 5.0 mi Calm Calm - 0.00 in Snow Light Snow
5:35 AM 17.1 °F - 12.9 °F 84% 29.76 in 3.0 mi Calm Calm - 0.00 in Snow Light Snow
5:53 AM 16.0 °F - 12.0 °F 84% 29.86 in 3.0 mi Calm Calm - 0.00 in Snow Light Snow
6:53 AM 17.1 °F - 12.0 °F 81% 29.86 in 6.0 mi Calm Calm - 0.00 in Snow Light Snow
7:21 AM 16.0 °F - 12.0 °F 84% 29.76 in 2.5 mi Calm Calm - 0.00 in Snow Light Snow
7:39 AM 16.0 °F - 12.0 °F 84% 29.76 in 1.2 mi Calm Calm - 0.00 in Snow Light Snow
7:53 AM 16.0 °F - 12.0 °F 84% 29.86 in 1.5 mi Calm Calm - 0.00 in Snow Light Snow
8:07 AM 16.0 °F - 12.0 °F 84% 29.76 in 2.0 mi Calm Calm - 0.00 in Snow Light Snow
8:30 AM 17.1 °F - 12.9 °F 84% 29.76 in 1.8 mi Calm Calm - 0.00 in Snow Light Snow
8:41 AM 17.1 °F - 12.9 °F 84% 29.76 in 1.2 mi Calm Calm - 0.00 in Snow Light Snow
8:53 AM 17.1 °F - 12.9 °F 84% 29.85 in 1.0 mi Calm Calm - 0.00 in Snow Light Snow
9:22 AM 18.0 °F - 14.0 °F 84% 29.75 in 1.8 mi Calm Calm - 0.00 in Snow Light Snow
9:31 AM 18.0 °F 12.7 °F 12.9 °F 81% 29.75 in 2.0 mi Variable 3.5 mph - 0.00 in Snow Light Snow
9:39 AM 19.0 °F - 14.0 °F 81% 29.75 in 2.0 mi Calm Calm - 0.00 in Snow Light Snow
9:53 AM 19.0 °F 13.9 °F 12.9 °F 77% 29.83 in 3.0 mi South 3.5 mph - 0.00 in Snow Light Snow
10:06 AM 19.0 °F 11.1 °F 12.0 °F 74% 29.74 in 1.8 mi SW 5.8 mph - 0.00 in Snow Light Snow
10:15 AM 19.0 °F 10.0 °F 12.9 °F 77% 29.74 in 2.0 mi South 6.9 mph - 0.00 in Snow Light Snow
10:17 AM 19.0 °F 11.1 °F 12.9 °F 77% 29.74 in 3.0 mi South 5.8 mph - 0.00 in Snow Light Snow
10:26 AM 19.0 °F 13.9 °F 12.9 °F 77% 29.74 in 3.0 mi Variable 3.5 mph - 0.00 in Snow Light Snow
10:35 AM 19.0 °F 10.0 °F 12.9 °F 77% 29.74 in 2.0 mi SSW 6.9 mph - 0.00 in Snow Light Snow
10:53 AM 19.9 °F 12.1 °F 12.9 °F 74% 29.83 in 2.0 mi Variable 5.8 mph - 0.00 in Snow Light Snow
11:03 AM 19.9 °F 11.1 °F 14.0 °F 78% 29.73 in 1.5 mi SW 6.9 mph - 0.00 in Snow Light Snow
11:16 AM 19.9 °F 12.1 °F 12.0 °F 71% 29.73 in 2.5 mi SSW 5.8 mph - 0.00 in Snow Light Snow
11:45 AM 19.9 °F 10.1 °F 12.9 °F 74% 29.71 in 1.8 mi SW 8.1 mph - 0.00 in Snow Light Snow
11:53 AM 21.0 °F 14.6 °F 12.9 °F 71% 29.79 in 2.5 mi SW 4.6 mph - 0.00 in Snow Light Snow
11:56 AM 19.9 °F 13.4 °F 12.9 °F 74% 29.71 in 3.0 mi SW 4.6 mph - 0.00 in Snow Light Snow
12:00 PM 19.9 °F 12.1 °F 12.9 °F 74% 29.70 in 1.8 mi SW 5.8 mph - 0.00 in Snow Light Snow
12:09 PM 19.9 °F 14.9 °F 12.9 °F 74% 29.70 in 0.5 mi Variable 3.5 mph - 0.00 in Snow Snow
12:20 PM 19.9 °F 12.1 °F 14.0 °F 78% 29.70 in 1.0 mi SW 5.8 mph - 0.00 in Snow Light Snow
12:37 PM 21.0 °F 11.4 °F 12.0 °F 68% 29.69 in 2.0 mi SW 8.1 mph 17.3 mph 0.00 in Snow Light Snow
12:50 PM 19.4 °F 9.5 °F 12.2 °F 74% 29.69 in 0.8 mi WSW 8.1 mph - 0.00 in Snow Light Snow
12:53 PM 19.9 °F 12.1 °F 12.9 °F 74% 29.78 in 0.5 mi Variable 5.8 mph - 0.00 in Snow Snow
1:11 PM 19.9 °F 11.1 °F 12.9 °F 74% 29.68 in 1.8 mi WSW 6.9 mph - 0.00 in Snow Light Snow
1:26 PM 19.9 °F 12.1 °F 14.0 °F 78% 29.68 in 0.5 mi SW 5.8 mph - 0.01 in Snow Snow
1:42 PM 21.0 °F 13.4 °F 14.0 °F 74% 29.67 in 1.5 mi SW 5.8 mph - 0.01 in Snow Light Snow
1:53 PM 21.0 °F 14.6 °F 14.0 °F 74% 29.75 in 1.0 mi West 4.6 mph - 0.01 in Snow Light Snow
2:01 PM 21.0 °F 12.4 °F 14.0 °F 74% 29.66 in 0.5 mi WSW 6.9 mph - 0.00 in Snow Snow
2:35 PM 19.9 °F 7.9 °F 14.0 °F 78% 29.66 in 0.5 mi West 11.5 mph - 0.00 in Snow Snow
2:42 PM 19.9 °F 8.6 °F 12.9 °F 74% 29.66 in 1.0 mi WSW 10.4 mph 16.1 mph 0.00 in Snow Light Snow
2:53 PM 19.9 °F 9.3 °F 12.0 °F 71% 29.75 in 2.0 mi West 9.2 mph 17.3 mph 0.00 in Snow Light Snow
3:03 PM 19.9 °F 9.3 °F 10.0 °F 65% 29.67 in 6.0 mi West 9.2 mph 17.3 mph 0.00 in Snow Light Snow
3:23 PM 19.9 °F 9.3 °F 10.9 °F 68% 29.67 in 1.8 mi West 9.2 mph 16.1 mph 0.00 in Snow Light Snow
3:53 PM 19.0 °F 8.2 °F 10.0 °F 68% 29.77 in 1.8 mi West 9.2 mph 18.4 mph 0.00 in Snow Light Snow
4:14 PM 18.0 °F 6.1 °F 10.0 °F 71% 29.68 in 2.0 mi West 10.4 mph - 0.00 in Snow Light Snow
4:36 PM 18.0 °F 7.7 °F 9.0 °F 68% 29.69 in 6.0 mi West 8.1 mph - 0.00 in   Haze
4:53 PM 18.0 °F 6.1 °F 9.0 °F 68% 29.79 in 5.0 mi West 10.4 mph - 0.00 in Snow Light Snow
5:36 PM 17.1 °F 4.3 °F 8.1 °F 68% 29.70 in 1.5 mi West 11.5 mph 16.1 mph 0.00 in Snow Light Snow
5:44 PM 16.0 °F 3.6 °F 10.0 °F 77% 29.70 in 0.5 mi West 10.4 mph - 0.00 in Snow Snow
5:53 PM 16.0 °F 5.3 °F 10.0 °F 77% 29.81 in 1.8 mi West 8.1 mph - 0.00 in Snow Light Snow
5:55 PM 16.0 °F 6.3 °F 10.0 °F 77% 29.71 in 3.0 mi West 6.9 mph - 0.00 in Snow Light Snow
6:04 PM 16.0 °F 3.6 °F 9.0 °F 74% 29.71 in 9.0 mi West 10.4 mph 18.4 mph 0.00 in   Overcast
6:43 PM 16.0 °F 5.3 °F 8.1 °F 71% 29.73 in 4.0 mi West 8.1 mph - 0.00 in Snow Light Snow
6:53 PM 16.0 °F 2.9 °F 8.1 °F 71% 29.83 in 3.0 mi West 11.5 mph 17.3 mph 0.00 in Snow Light Snow
7:07 PM 15.1 °F 3.3 °F 9.0 °F 77% 29.74 in 2.0 mi West 9.2 mph - 0.00 in Snow Light Snow
7:19 PM 15.1 °F 1.1 °F 9.0 °F 77% 29.74 in 1.8 mi West 12.7 mph 20.7 mph 0.00 in Snow Light Snow
7:28 PM 15.1 °F 2.5 °F 8.1 °F 74% 29.75 in 2.5 mi West 10.4 mph - 0.00 in Snow Light Snow
7:44 PM 15.1 °F 0.5 °F 7.0 °F 70% 29.75 in 3.0 mi West 13.8 mph - 0.00 in Snow Light Snow
7:53 PM 15.1 °F 2.5 °F 7.0 °F 70% 29.86 in 1.5 mi West 10.4 mph - 0.00 in Snow Light Snow
8:01 PM 14.0 °F 1.2 °F 8.1 °F 77% 29.76 in 0.5 mi West 10.4 mph 20.7 mph 0.00 in Snow Snow
8:10 PM 14.0 °F 2.0 °F 8.1 °F 77% 29.76 in 1.0 mi West 9.2 mph - 0.00 in Snow Light Snow
8:20 PM 14.0 °F 3.9 °F 8.1 °F 77% 29.77 in 2.0 mi West 6.9 mph 17.3 mph 0.00 in Snow Light Snow
8:27 PM 14.0 °F 2.9 °F 9.0 °F 80% 29.77 in 1.2 mi West 8.1 mph - 0.00 in Snow Light Snow
8:40 PM 14.0 °F 2.0 °F 7.0 °F 74% 29.77 in 2.5 mi West 9.2 mph - 0.00 in Snow Light Snow
8:53 PM 14.0 °F 2.9 °F 8.1 °F 77% 29.88 in 1.5 mi WSW 8.1 mph - 0.00 in Snow Light Snow
9:17 PM 12.9 °F 2.6 °F 8.1 °F 81% 29.78 in 2.0 mi West 6.9 mph - 0.00 in Snow Light Snow
9:44 PM 14.0 °F 3.9 °F 8.1 °F 77% 29.78 in 1.8 mi Variable 6.9 mph - 0.00 in Snow Light Snow
9:53 PM 14.0 °F 3.9 °F 8.1 °F 77% 29.88 in 2.0 mi West 6.9 mph - 0.00 in Snow Light Snow
10:10 PM 14.0 °F 2.9 °F 7.0 °F 74% 29.78 in 4.0 mi WSW 8.1 mph - 0.00 in Snow Light Snow
10:51 PM 14.0 °F 5.1 °F 6.8 °F 73% 29.78 in 2.0 mi West 5.8 mph - 0.00 in Snow Light Snow
10:53 PM 14.0 °F 5.1 °F 7.0 °F 74% 29.87 in 2.0 mi West 5.8 mph - 0.00 in Snow Light Snow
11:27 PM 14.0 °F 2.0 °F 8.1 °F 77% 29.77 in 3.0 mi WSW 9.2 mph - 0.00 in Snow Light Snow
11:44 PM 14.0 °F 3.9 °F 8.1 °F 77% 29.78 in 2.0 mi WSW 6.9 mph - 0.00 in Snow Light Snow
11:53 PM 14.0 °F 2.9 °F 8.1 °F 77% 29.87 in 2.5 mi WSW 8.1 mph - 0.00 in Snow Light Snow